Location: Ffald-y-Brenin
(52.0833°N, 4.0000°W)
Time: 02:53:30
(UTC+00:00)

ALOS - Pass Details

Date: 18 February 2020
Orbit: 683 x 685 km, 97.8° (Epoch: 05 April)

Event Time Altitude Azimuth Distance (km) Brightness Sun altitude
Rises 05:49:09 0° 13° (NNE) 3,064 5.8 -15.5°
Reaches altitude 10° 05:51:24 10° 12° (NNE) 2,143 5.0 -15.2°
Maximum altitude 05:56:06 80° 287° (WNW) 702 2.2 -14.5°
Drops below altitude 10° 06:00:45 10° 200° (SSW) 2,126 4.6 -13.8°
Sets 06:02:59 0° 200° (SSW) 3,037 5.4 -13.4°
